Location: Newark
(48.6461°N, 4.3644°W)
Time: 11:26:06
(UTC+00:00)

A-11 Canister half - Visible Passes

Search period start: 20 January 2020 00:00
Search period end: 30 January 2020 00:00
Orbit: 1525 x 1684 km, 47.3° (Epoch: 19 January)

Date Brightness Start Highest point End Pass type
(mag) Time Alt. Az. Time Alt. Az. Time Alt. Az.
20 Jan 9.8 18:03:27 10° SSW 18:11:20 32° SE 18:17:40 16° E visible
20 Jan 8.9 20:05:53 10° WSW 20:15:12 68° SSE 20:15:59 66° SE visible
20 Jan 10.3 22:10:30 10° W 22:14:17 28° W 22:14:17 28° W visible
21 Jan 9.9 17:42:03 10° SSW 17:49:47 30° SE 17:57:23 11° E visible
21 Jan 9.0 19:44:18 10° WSW 19:53:34 66° SSE 19:55:42 54° ESE visible
21 Jan 10.0 21:48:52 10° W 21:54:01 38° W 21:54:01 38° W visible
22 Jan 10.0 17:20:39 10° S 17:28:13 29° SE 17:35:57 10° E visible
22 Jan 9.0 19:22:43 10° SW 19:31:58 65° SSE 19:35:23 43° E visible
22 Jan 9.5 21:27:15 10° W 21:33:41 50° W 21:33:41 50° W visible
23 Jan 9.1 19:01:10 10° SW 19:10:21 63° SSE 19:15:02 33° E visible
23 Jan 9.2 21:05:38 10° W 21:13:21 64° WSW 21:13:21 64° WSW visible
23 Jan 11.0 23:10:33 10° WNW 23:11:39 14° W 23:11:39 14° W visible
24 Jan 9.1 18:39:35 10° SW 18:48:44 62° SSE 18:54:41 25° E visible
24 Jan 8.9 20:44:00 10° W 20:52:59 80° SW 20:52:59 80° SW visible
24 Jan 10.7 22:48:55 10° WNW 22:51:17 20° W 22:51:17 20° W visible
25 Jan 9.2 18:18:02 10° SW 18:27:08 60° SSE 18:34:18 19° E visible
25 Jan 8.8 20:22:23 10° W 20:31:51 84° S 20:32:36 77° ESE visible
25 Jan 10.4 22:27:18 10° W 22:30:54 27° W 22:30:54 27° W visible
26 Jan 9.3 17:56:28 10° SW 18:05:32 58° SSE 18:13:55 13° ENE visible
26 Jan 8.9 20:00:46 10° W 20:10:13 83° S 20:12:13 62° E visible
26 Jan 10.1 22:05:40 10° W 22:10:31 35° W 22:10:31 35° W visible
27 Jan 9.3 17:34:56 10° SW 17:43:56 57° SSE 17:53:11 10° ENE visible
27 Jan 8.9 19:39:08 10° W 19:48:34 83° S 19:51:50 48° E visible
27 Jan 9.7 21:44:02 10° W 21:50:07 45° W 21:50:07 45° W visible
28 Jan 8.9 19:17:31 10° W 19:26:56 83° S 19:31:26 37° E visible
28 Jan 9.3 21:22:25 10° W 21:29:44 57° WSW 21:29:44 57° WSW visible
28 Jan 11.1 23:27:31 10° WNW 23:28:02 12° W 23:28:02 12° W visible
29 Jan 9.0 18:55:55 10° WSW 19:05:18 82° S 19:11:02 29° E visible
29 Jan 9.0 21:00:48 10° W 21:09:20 69° SW 21:09:20 69° SW visible
29 Jan 10.9 23:05:51 10° WNW 23:07:39 16° W 23:07:39 16° W visible
